Location: City of Moscow
(46.7306°N, 116.9989°W)
Time: 19:26:44
(UTC+00:00)

CUBEBUG 2 - Pass Details

Date: 20 April 2026
Orbit: 546 x 628 km, 97.9° (Epoch: 13 May)

Event Time Altitude Azimuth Distance (km) Brightness Sun altitude
Rises 11:12:10 0° 2° (N) 2,863 ? -15.9°
Reaches altitude 10° 11:14:38 10° 350° (N) 1,941 ? -15.5°
Maximum altitude 11:18:06 25° 295° (WNW) 1,187 ? -15.0°
Enters shadow 11:19:24 22° 265° (W) 1,311 ? -14.9°
